Zurück zum Katalog

STARLINK-31949

AktivKommunikationVLEO
NORAD 59891·PAYLOAD·🇺🇸 United States

Gestartet May 28, 2024 von Cape Canaveral Space Force Station

Loading…

Nächste Überflüge (nächste 24 Stunden)

TLE

AktuellSource: CelesTrak SupGP

Epoche: Sep 15, 2026, 02:27 UTC

1 59891C 24100G   26258.10256944  .00063880  00000+0  23136-2 0  2582
2 59891  42.9993 135.6357 0001395 272.3610 162.2677 15.27547997    17

Verfolge STARLINK-31949 in Echtzeit mit AllMySat

Download on the App Store